Probability
0 0 0 0 0 0 0 0 0 0 0 0 0 0 0 0 0 0 0 0 0 0 0 0 0 0 0 0 0 0 0 0 0 0 0 1 2 2 1 0 0 0 0 0
0 0 0 0 0 0 0 0 0 0 0 0 0 0 0 0 0 0 0 0 0 0 0 0 0 0 0 0 0 0 0 0 0 0 0 1 2 2 1 0 0 0 0 0
0 0 0 0 0 0 0 0 0 0 0 0 0 0 0 0 0 0 0 0 0 0 0 0 0 0 0 0 0 0 0 0 0 0 0 1 1 1 0 0 0 0 0 0
0 0 0 0 0 0 0 0 0 0 0 0 0 0 0 0 0 0 0 0 0 0 0 0 0 0 0 0 0 0 0 0 0 0 0 0 0 0 0 0 0 0 0 0
0 0 0 0 0 0 0 0 0 0 0 0 0 0 0 0 0 0 0 0 0 0 0 0 0 0 0 0 0 0 0 0 0 0 0 0 0 0 0 0 0 0 0 0
0 0 0 0 0 0 0 0 0 0 0 0 0 0 0 0 0 0 0 0 0 0 0 0 0 0 0 0 0 0 0 0 0 0 0 0 0 0 0 0 0 0 0 0
0 0 0 0 0 0 0 0 0 0 0 0 0 0 0 0 0 0 0 0 0 0 0 0 0 0 0 0 0 0 0 0 0 0 0 0 0 0 0 0 0 0 0 0
0 0 0 0 0 0 0 0 0 0 0 0 0 0 0 0 0 0 0 0 0 0 0 0 0 0 0 0 0 0 0 0 0 0 0 0 0 0 0 0 0 0 0 0
0 0 0 0 0 0 0 0 0 0 0 0 0 0 0 0 0 0 0 0 0 0 0 0 0 0 0 0 0 0 0 0 0 0 0 0 0 0 0 0 0 0 0 0
0 0 0 0 0 0 0 0 0 0 0 0 0 0 0 0 0 0 0 0 0 0 0 0 0 0 0 0 0 0 0 0 0 0 0 0 0 0 0 0 0 0 0 0
0 0 0 0 0 0 0 0 0 0 0 0 0 0 0 0 0 0 0 0 0 0 0 0 0 0 0 0 0 0 0 0 0 0 0 0 0 0 0 0 0 0 0 0
0 0 0 0 0 0 0 0 0 0 0 0 0 0 0 0 0 0 0 0 0 0 0 0 0 0 0 0 0 0 0 0 0 0 0 0 0 0 0 0 0 0 0 0
0 0 0 0 0 0 0 0 0 0 0 0 0 0 0 0 0 0 0 0 0 0 0 0 0 0 0 0 0 0 0 0 0 0 0 0 0 0 0 0 0 0 0 0
0 0 0 0 0 0 0 0 0 0 0 0 0 0 0 0 0 0 0 0 0 0 0 0 0 0 0 0 0 0 0 0 0 0 0 0 0 0 0 0 0 0 0 0
0 0 0 0 0 0 0 0 0 0 0 0 0 0 0 0 0 0 0 0 0 0 0 0 0 0 0 0 0 0 0 0 0 0 0 0 0 0 0 0 0 0 0 0
0 0 0 0 0 0 0 0 0 0 0 0 0 0 0 0 0 0 0 0 0 0 0 0 0 0 0 0 0 0 0 0 0 0 0 0 0 0 0 0 0 0 0 0
0 0 0 0 0 0 0 0 0 0 0 0 0 0 0 0 0 0 0 0 0 0 0 0 0 0 0 0 0 0 0 0 0 0 0 0 0 0 0 0 0 0 0 0
0 0 0 0 0 0 0 0 0 0 0 0 0 0 0 0 0 0 0 0 0 0 0 0 0 0 0 0 0 0 0 0 0 0 0 0 0 0 0 0 0 0 0 0
0 0 0 0 0 0 0 0 0 0 0 0 0 0 0 0 0 0 0 0 0 0 0 0 0 0 0 0 0 0 0 0 0 0 0 0 0 0 0 0 0 0 0 0
0 0 0 0 0 0 0 0 0 0 0 0 0 0 0 0 0 0 0 0 0 0 0 0 0 0 0 0 0 0 0 0 0 0 0 0 0 0 0 0 0 0 0 0
0 0 0 0 0 0 0 0 0 0 0 0 0 0 0 0 0 0 0 0 0 0 0 0 0 0 0 0 0 0 0 0 0 0 0 0 0 0 0 0 0 0 0 0
0 0 0 0 0 0 0 0 0 0 0 0 0 0 0 0 0 0 0 0 0 0 0 0 0 0 0 0 0 0 0 0 0 0 0 0 0 0 0 0 0 0 0 0
0 0 0 0 0 0 0 0 0 0 0 0 0 0 0 0 0 0 0 0 0 0 0 0 0 0 0 0 0 0 0 0 0 0 0 0 0 0 0 0 0 0 0 0
0 0 0 0 0 0 0 0 0 0 0 0 0 0 0 0 0 0 0 0 0 0 0 0 0 0 0 0 0 0 0 0 0 0 0 0 0 0 0 0 0 0 0 0
0 0 0 0 0 0 0 0 0 0 0 0 0 0 0 0 0 0 0 0 0 0 0 0 0 0 0 0 0 0 0 0 0 0 0 0 0 0 0 0 0 0 0 0
0 0 0 0 0 0 0 0 0 0 0 0 0 0 0 0 0 0 0 0 0 0 0 0 0 0 0 0 0 0 0 0 0 0 0 0 0 0 0 0 0 0 0 0
Wind_Speed
2 2 3 6 6 3 2 3 5 5 3 2 6 10 11 6 3 4 4 3 4 5 4 3 2 1 1 1 1 1 2 2 3 2 2 2 2 1 1 2 2 3 3 3
3 4 5 2 2 2 3 4 5 5 2 2 5 10 8 5 4 4 4 4 4 4 3 3 3 2 2 1 0 1 1 2 3 2 2 2 2 1 2 1 2 3 3 3
5 4 1 2 2 3 5 6 5 5 4 2 5 8 6 4 2 2 2 3 2 3 3 3 2 2 2 2 1 1 1 2 3 2 2 2 2 1 1 1 1 2 3 3
4 3 1 2 3 4 6 5 5 4 2 4 1 6 8 4 4 4 3 2 3 3 2 2 2 2 2 2 1 0 1 2 2 3 3 3 2 2 2 2 2 2 2 3
4 1 1 3 4 4 5 1 2 3 3 3 2 4 9 2 5 5 3 3 3 2 1 2 2 2 2 2 1 1 1 1 1 2 3 3 2 1 1 1 2 1 1 2
3 2 2 3 1 2 2 2 2 2 1 5 6 6 9 5 7 4 2 2 2 1 1 2 2 2 3 3 3 2 2 1 1 2 2 2 2 2 2 2 2 1 1 1
3 2 1 0 1 1 2 3 3 4 2 7 3 5 11 6 4 4 4 2 2 1 0 1 2 2 2 3 3 3 2 2 1 2 2 2 2 3 3 3 2 2 1 1
2 5 3 1 3 3 2 4 4 4 5 6 3 8 8 3 1 1 2 1 1 0 0 0 0 1 1 2 2 2 2 2 2 1 1 1 2 2 1 1 2 2 2 2
5 5 1 1 1 4 3 3 2 2 1 3 6 7 7 2 1 1 1 1 1 1 1 1 0 0 1 1 1 1 1 2 2 1 1 1 1 1 1 1 1 1 0 0
4 3 3 2 1 1 2 4 3 3 2 5 6 5 6 4 5 3 2 2 2 1 1 1 1 0 1 0 1 1 1 1 1 2 1 1 0 0 1 1 1 0 0 1
3 3 2 1 4 5 3 2 2 2 3 4 5 8 5 6 5 4 4 3 2 2 2 2 1 1 0 1 1 1 1 2 2 1 2 2 1 1 1 1 1 1 0 1
3 3 3 5 3 2 3 5 5 4 5 4 4 9 3 3 2 3 3 2 1 1 1 1 1 0 0 0 0 1 1 1 1 1 1 2 2 2 2 1 0 1 1 1
4 4 1 4 3 1 2 3 3 2 2 4 5 10 3 2 2 1 2 2 1 1 1 0 0 1 1 1 1 0 1 1 1 1 2 2 2 1 1 1 1 1 1 1
2 4 6 8 6 4 4 4 4 5 5 6 10 11 8 6 5 4 3 2 2 2 2 2 2 2 1 1 1 1 1 0 1 1 1 1 1 0 0 1 1 1 1 1
3 4 5 6 4 4 6 7 7 9 10 10 10 11 12 9 7 5 3 3 2 2 2 3 4 3 2 1 1 1 1 0 0 1 0 1 0 0 1 1 1 1 1 1
3 3 2 5 4 4 8 10 11 12 10 12 11 15 9 7 4 4 4 4 4 4 4 4 4 3 3 3 2 2 2 1 1 1 1 0 0 1 1 1 1 1 1 1
4 4 3 5 3 2 11 12 12 9 9 9 14 15 5 6 6 7 6 4 5 5 5 5 5 5 4 4 3 3 2 1 1 1 1 0 0 0 0 0 1 0 1 1
6 5 3 2 1 11 11 4 8 10 11 11 10 8 6 8 7 5 5 5 6 5 5 4 4 4 3 2 2 2 1 2 2 1 1 1 1 1 0 0 0 1 1 1
7 7 4 3 5 11 9 4 6 8 10 8 11 10 7 4 3 5 4 4 6 5 4 4 3 3 2 2 2 2 2 2 2 2 2 1 1 1 1 1 1 1 1 1
5 6 6 5 6 10 8 2 3 3 8 4 6 7 5 1 3 7 3 3 3 2 2 2 1 1 2 2 2 2 2 2 3 3 2 2 2 2 2 2 2 1 1 1
5 6 9 9 9 11 7 2 4 5 8 2 5 5 4 5 7 5 2 2 2 2 2 1 1 2 2 2 2 3 3 3 3 2 1 1 1 2 2 1 1 1 1 1
10 8 8 7 8 12 4 6 8 7 2 2 2 3 4 5 5 3 2 2 2 1 1 1 1 1 1 1 2 2 3 2 1 1 1 1 1 1 1 1 1 1 1 1
9 9 7 10 10 4 4 6 4 2 2 2 2 3 3 3 4 3 3 3 2 2 1 1 1 1 1 1 2 3 3 1 1 1 2 1 1 1 1 1 1 1 1 1
5 3 4 6 8 7 5 5 3 3 4 3 3 3 3 4 4 4 3 3 3 2 2 1 1 1 2 2 2 2 2 1 2 2 2 1 1 1 1 1 1 2 2 2
6 5 5 8 7 5 5 5 5 3 3 3 3 3 3 4 4 4 4 4 3 3 2 1 2 3 3 2 2 2 1 1 2 2 1 1 1 1 1 1 2 2 3 3
5 6 7 9 6 5 6 4 3 3 5 5 4 4 3 3 4 4 4 3 3 3 2 2 2 3 3 2 2 2 1 1 2 2 2 1 1 1 1 1 1 3 3 5
Wind_Direction
44 87 209 217 210 223 210 229 259 264 281 255 253 267 277 285 259 262 272 278 282 280 298 329 334 345 30 57 124 151 155 156 141 136 146 158 189 184 175 188 182 176 173 170
47 247 239 217 212 227 228 253 267 286 307 264 277 276 274 263 240 240 252 261 269 290 327 342 357 6 10 3 273 141 173 171 172 172 161 168 160 170 185 179 178 180 175 173
201 244 230 166 198 220 236 226 241 260 314 314 312 296 276 271 246 256 253 255 271 267 280 302 336 345 347 335 284 225 203 186 179 156 124 100 88 75 126 188 195 191 183 176
244 267 187 199 223 201 253 231 226 244 273 281 246 288 280 267 279 267 263 273 275 284 283 297 317 335 327 298 295 277 180 174 168 152 154 152 162 193 211 207 198 186 178 178
252 245 209 229 232 196 235 240 212 236 220 271 241 249 278 283 266 263 254 253 267 276 280 295 303 303 323 330 29 40 68 115 145 152 167 171 177 197 180 151 155 166 173 178
251 251 217 224 252 186 177 49 34 31 100 260 226 209 271 240 233 246 241 243 265 302 346 342 355 11 13 22 38 39 63 59 130 139 146 168 177 168 154 144 155 164 173 185
302 280 261 154 59 38 87 85 13 345 320 254 219 218 250 247 232 214 227 246 256 261 313 6 14 13 16 26 37 38 58 47 55 125 141 171 179 171 174 180 176 171 175 204
221 273 237 206 177 180 201 161 174 218 243 280 270 237 253 247 261 246 234 238 293 298 239 207 256 353 7 16 36 52 53 38 36 76 146 157 162 171 181 182 180 192 201 210
195 251 320 269 253 151 162 202 189 159 247 275 264 274 293 267 285 267 268 301 264 267 256 236 222 45 355 4 8 45 63 42 30 31 48 115 151 161 167 158 159 194 240 184
172 241 285 305 41 358 171 155 125 156 205 265 281 265 251 247 245 251 256 257 270 290 291 274 260 274 280 309 1 26 51 55 33 35 46 50 38 187 168 139 139 125 49 56
165 185 286 312 207 198 154 166 168 172 188 196 273 269 234 227 226 228 242 242 241 252 267 257 252 238 202 29 37 31 26 36 36 38 44 52 42 44 96 125 155 164 121 108
176 153 240 251 257 238 201 192 170 185 231 218 245 269 281 229 249 230 243 252 252 245 257 253 244 165 120 127 13 13 2 13 8 33 64 62 52 55 54 38 31 90 101 104
152 143 24 331 328 316 237 222 201 174 166 198 219 263 308 343 327 261 236 243 240 234 259 245 229 220 217 221 241 285 306 308 360 42 60 54 50 56 43 23 30 58 83 77
147 169 189 213 228 199 235 241 208 175 204 229 234 257 282 289 290 292 273 244 233 222 217 227 244 245 242 233 227 237 272 303 41 55 70 66 33 31 18 33 39 51 75 96
148 213 231 251 252 224 232 237 215 213 217 225 248 251 261 262 260 262 261 243 230 236 232 234 240 245 248 246 248 246 260 281 133 142 171 255 319 50 55 49 39 41 49 43
157 197 211 265 262 257 263 250 230 229 233 240 258 266 262 267 266 266 262 246 238 251 249 243 243 245 239 230 235 246 247 240 182 190 224 275 48 72 71 59 44 37 21 9
171 159 182 254 276 337 265 233 217 220 217 212 238 252 258 266 259 251 248 236 241 252 253 246 240 239 238 231 220 227 226 204 184 203 230 234 183 170 33 66 75 360 298 327
172 163 183 234 128 240 247 199 201 222 238 226 240 254 244 242 254 254 227 224 248 253 250 246 239 241 245 239 225 224 194 185 187 202 222 232 223 266 314 356 225 279 293 268
189 175 181 187 235 267 282 242 189 204 252 231 236 253 259 261 304 282 238 230 241 244 240 237 227 226 225 225 214 200 195 188 192 213 226 233 230 243 261 267 274 280 274 276
198 187 187 195 213 242 252 231 185 156 268 241 216 239 251 233 261 266 270 255 255 255 237 229 211 186 200 221 193 188 204 205 223 233 240 236 223 221 234 251 275 287 259 262
176 198 210 212 230 254 252 214 135 186 249 239 203 218 211 210 232 260 282 277 254 246 238 197 174 195 215 203 188 199 206 225 237 243 238 226 222 227 233 250 273 268 265 273
185 190 204 197 222 249 212 151 189 221 240 196 198 213 226 239 254 263 270 281 281 267 242 189 193 240 238 195 190 209 228 244 237 209 218 230 237 237 218 210 248 239 214 221
206 201 198 204 223 247 183 199 221 212 220 232 232 250 235 248 254 258 259 260 260 253 244 216 213 257 282 233 209 223 249 235 191 209 227 237 240 237 205 198 207 220 209 221
235 206 203 236 253 256 249 255 259 232 238 247 238 236 217 236 253 260 261 260 255 246 234 210 199 248 274 277 259 246 251 207 187 214 233 230 218 229 222 221 207 211 220 232
215 185 214 242 258 281 266 252 254 250 249 261 260 233 223 232 254 252 256 256 252 253 244 215 218 237 258 277 280 288 274 194 208 225 231 229 221 218 227 235 231 233 236 234
201 197 208 237 233 232 253 256 252 253 261 260 261 266 260 237 251 257 256 254 251 256 249 244 245 249 263 274 281 294 279 200 206 227 234 230 225 229 228 242 295 280 272 277